User: anonymous   Login
Location: Unspecified
(0.0000°N, 0.0000°E)
Time: 23:10:36
(UTC+00:00)
Language:

SAUDISAT 1B - Orbit

View from above orbital plane
View from above orbital plane
View from above satellite
View from above satellite

Ground track
Ground track

The orbit data is extracted from the following two-line orbital elements,

1 26549U 00057E   24103.92945260  .00001392  00000-0  16991-3 0  9999
2 26549  64.5504 320.1457 0049902 238.6971 120.9246 14.86691012273413
Epoch (UTC): 12 April 2024 22:18:24
Eccentricity: 0.0049902
inclination: 64.5504°
perigee height: 573 km
apogee height: 643 km
right ascension of ascending node: 320.1457°
argument of perigee: 238.6971°
revolutions per day: 14.86691012
mean anomaly at epoch: 120.9246°
orbit number at epoch: 27341

The dashed part of the orbit path shows where the satellite is in the earth's shadow,  

DLR